User: anonymous   Login
Location: Unspecified
(0.0000°N, 0.0000°E)
Time: 06:49:52
(UTC+00:00)
Language:

Kosmos-2218 - Orbit

View from above orbital plane
View from above orbital plane
View from above satellite
View from above satellite

Ground track
Ground track

The orbit data is extracted from the following two-line orbital elements,

1 22207U 92073A   17087.53781229 +.00000018 +00000-0 +37384-5 0  9993
2 22207 082.9179 108.9781 0032653 000.5400 108.3483 13.72858389222842
Epoch (UTC): 28 March 2017 12:54:26
Eccentricity: 0.0032653
inclination: 82.9179°
perigee height: 965 km
apogee height: 1013 km
right ascension of ascending node: 108.9781°
argument of perigee: 0.5400°
revolutions per day: 13.72858389
mean anomaly at epoch: 108.3483°
orbit number at epoch: 22284

The dashed part of the orbit path shows where the satellite is in the earth's shadow,  

DLR